Starlink 30402

operational
NORAD ID: 57827 Int'l Des: 2023-138 Owner: SPXS Country: US Constellation: starlink
LEOCIRCULAR

About Starlink 30402

Description loading...

Live Position

Loading 3D Globe...

Upcoming Passes

Altitude History

Altitude vs Time

uPlot chart will show altitude changes over time

Two-Line Element Set

1 57827U 23138V 25304.81780718 .00003272 00000-0 25724-3 0 9997
2 57827 43.0030 216.0414 0001208 262.6603 97.4102 15.02521923119324
Epoch: Oct 31, 2025 • Age: 30 hours

Current Status

Altitude 566.5 km
Velocity 7.58 km/s
Sub-Earth Point -30.07°S, 5.59°E
Launch Date Sep 9, 2023
Age 2.1 years
Type internet

Technical Details

Classification Payload
Mass 730.00 kg
Dry Mass 700.00 kg
Total Mass 730.00 kg
Length 0.30 m
Diameter 4.10 m
Span 29.00 m
Shape Box + pan
Manufacturer SPXS
Bus Type Starlink V2M
Phase Status In Orbit
Owner/State SPXS/US

Large Constellations

Loading constellations...